Regional Weather Roundup
Issued by NWS Green Bay, WI

Home | Current Version | Previous Version | Graphics & Text | Print | Product List | Glossary Off
Versions: 1 2 3 4 5 6 7 8 9 10 11 12 13 14 15 16 17 18 19 20 21 22 23 24 25 26 27 28 29 30 31 32 33 34 35 36 37 38 39 40 41 42 43 44 45 46 47 48 49 50

430
ASUS43 KGRB 110211
RWRGRB

NORTH-CENTRAL AND NORTHEAST WISCONSIN REGIONAL WEATHER ROUNDUP
NATIONAL WEATHER SERVICE GREEN BAY WI
800 PM CST WED FEB 10 2016

WIZ005-009-010>012-018-019-110300-
NORTH CENTRAL WISCONSIN

CITY           SKY/WX    TMP DP  RH WIND       PRES   REMARKS
IRONWOOD       CLOUDY     7   1  78 NW8       30.09S WCI  -6
MANITOWISH WTR CLOUDY     5   0  78 NW6       30.07R WCI  -6
ARBOR VITAE    CLOUDY     9   2  72 NW7       30.06S WCI  -2
EAGLE RIVER    CLOUDY     6  -4  65 N7        30.05F WCI  -6
LAND O LAKES   CLOUDY     6  -1  74 NW6       30.06S WCI  -5
RHINELANDER    CLOUDY     6  -4  63 N9        30.06S WCI  -8
PHILLIPS       CLOUDY    -1  -5  81 CALM      30.11R
ANTIGO         MOCLDY     3  -6  67 N8        30.06S WCI -11
TOMAHAWK       CLOUDY     5  -4  67 N5        30.09S WCI  -4
MERRILL        MOCLDY     5  -5  64 N5        30.10S WCI  -4
$$

WIZ013-073-110300-
NORTHEAST WISCONSIN

CITY           SKY/WX    TMP DP  RH WIND       PRES   REMARKS
IRON MOUNTAIN  CLOUDY     7  -3  64 NW8       30.07R WCI  -6
MARINETTE      CLEAR      7  -8  51 N7        30.11R WCI  -5
OCONTO         CLEAR      6  -5  58 N5        30.13R WCI  -2
$$

WIZ017-030-035>037-045-110300-
CENTRAL WISCONSIN

CITY           SKY/WX    TMP DP  RH WIND       PRES   REMARKS
MEDFORD        CLEAR      2  -5  72 N7        30.09R WCI -10
WAUSAU         CLEAR      7  -4  60 N7        30.09R WCI  -5
MOSINEE        CLEAR      7  -4  61 NW5       30.10R WCI  -2
MARSHFIELD     CLEAR      1  -8  66 NW8       30.10R WCI -13
WISC RAPIDS    CLEAR      4  -6  63 NW6       30.13S WCI  -7
STEVENS POINT  CLEAR      3  -6  66 N3        30.11R
WAUPACA        PTCLDY     9  -5  53 NW5       30.13R WCI   1
SHAWANO        CLEAR     10  -4  52 N3        30.12R
CLINTONVILLE   CLEAR     10  -6  48 N3        30.12R
WAUTOMA        PTCLDY     4  -6  63 NW5       30.13S WCI  -5
$$

WIZ038-039-048-051-110300-
FOX VALLEY

CITY           SKY/WX    TMP DP  RH WIND       PRES   REMARKS
NWS GREEN BAY  CLEAR      5  -6  60 NW5       30.12R WCI  -4
APPLETON       PTCLDY     9  -8  47 NW6       30.08R WCI  -1
OSHKOSH        CLEAR      7  -6  55 W7        30.11R WCI  -5
FOND DU LAC    CLEAR      8  -4  58 W9        30.11R WCI  -5
$$

WIZ022-050-052-110300-
EAST CENTRAL WISCONSIN

CITY           SKY/WX    TMP DP  RH WIND       PRES   REMARKS
EPHRAIM        FAIR       8  -4  59 NW16      30.08S WCI -10
STURGEON BAY   CLEAR      9  -6  52 N12       30.12R WCI  -6
MANITOWOC      CLEAR      8  -4  58 NW6       30.12R WCI  -2
SHEBOYGAN      CLEAR      5  -5  63 W7        30.10R WCI  -7
$$

LMZ563-521-522-541>543-110300-
LAKESHORE

STATION/POSITION TIME  TEMP    WIND        PRES    VSBY  WAVE
                       AIR SEA DIR/SP/G                  HT/PER
                 (UTC) (F)     (DEG/KT/KT) (MB)    (MI)  (FT/S)
SHEBOYGAN LKSHOR 0200   10     270/  7/  9 1021.4R
KEWAUNEE LKSHORE 0100   10     330/  5/  7 1018.3R
ALGOMA MARINA    0141          360/  3/  6   N/A
CHAMBERS ISLAND  0100    9     310/ 17/ 23 1019.3R
MENOMINEE LKSHOR 0100   10     320/ 13     1018.4R
$$




USA.gov is the U.S. government's official web portal to all federal, state and local government web resources and services.